7 * 24
多渠道服务支持
BEIDOU-3 M19 是中国北斗三号全球卫星导航系统中的重要组成部分,属于中圆地球轨道(MEO)卫星。该卫星于2020年发射,主要用于提供高精度定位、导航和授时服务。北斗三号系统由多颗地球静止轨道(GEO)、倾斜地球同步轨道(IGSO)和中圆轨道(MEO)卫星组成,M19 卫星在提升系统覆盖范围和定位精度方面发挥关键作用。其先进载荷和稳定性能增强了北斗在全球范围内的服务能力,支持交通运输、通信、农业、应急救援等多个领域应用。
中国
(CN)
| 数据来源 | 国际轨道数据 |
| 星历时间: | 2026-09-11T17:03:24+0800 1天前 查看轨道信息 |
| 半长轴: | 27906.159km |
| 偏心率: | 0.0015767 |
| 轨道倾角: | 56.639° |
| 近地点辐角 | 292.890° |
| 升交点赤经 | 59.946° |
| 平近点角 | 67.048° |
| 近地点: | 21484.022km |
| 远地点: | 21572.022km |
| 周期: | 773.232分钟 |
| 每日圈数: | 1.862313 |